Flag for U.S.A. Weather past 2 weeks in Virginia Beach, Virginia, U.S.A.

Now
60 °F

Passing clouds.


Feels Like: 60 °F
Forecast: 57 / 73 °F
Wind: 5 mph from Southwest

Location: Virginia Beach - Oceana

Current Time: Oct 21, 2014 at 8:01:26 AM

Latest Report: Oct 21, 2014 at 6:56 AM


Visibility: 10 mi

Pressure: 29.91 "Hg

Humidity: 83%

Dew point: 55 °F

Location of Virginia BeachLocation

Historic Weather in Virginia Beach — Graph

°F

Virginia Beach temperature yesterday

Maximum temperature yesterday: 70 °F (at 2:56 PM)
Minimum temperature yesterday: 42 °F (at 5:56 AM)
Average temperature yesterday: 57 °F

Past Weeks' High & Low Weather Summary

 TemperatureHumidityPressure
High83 °F (Oct 8, 12:56 PM)90% (Oct 15, 10:56 PM)30.27 "Hg (Oct 15, 10:56 PM)
Low42 °F (Oct 20, 5:56 AM)32% (Oct 6, 1:56 PM)29.68 "Hg (Oct 18, 1:56 PM)
Average68 °F65%30.00 "Hg
* Reported Oct 6 6:56 AM — Oct 21 6:56 AM, Virginia Beach, Weather by CustomWeather, © 2014

Note: Actual official high and low records may vary slightly from our data, if they occured in-between our weather recording intervals... More about our weather records

Advertising

Virginia Beach weather history for previous 24 hours

 ConditionsComfort  
Time TempWeatherWind HumidityBarometerVisibility
6:56 AM
Oct 21
60 °FPassing clouds.5 mph83%29.91 "Hg10 mi
5:56 AM61 °FPartly cloudy.7 mph81%29.91 "Hg10 mi
4:56 AM61 °FOvercast.6 mph81%29.90 "Hg10 mi
3:56 AM60 °FPartly cloudy.6 mph80%29.91 "Hg10 mi
2:56 AM61 °FPassing clouds.6 mph78%29.93 "Hg10 mi
1:56 AM57 °FPassing clouds.3 mph81%29.96 "Hg10 mi
12:56 AM61 °FPassing clouds.5 mph75%29.97 "Hg10 mi
11:56 PM
Oct 20
61 °FPassing clouds.7 mph72%29.98 "Hg10 mi
10:56 PM61 °FPassing clouds.6 mph67%30.00 "Hg10 mi
9:56 PM62 °FPassing clouds.6 mph62%30.01 "Hg10 mi
8:56 PM61 °FPassing clouds.6 mph58%30.01 "Hg10 mi
7:56 PM61 °FPassing clouds.5 mph52%30.02 "Hg10 mi
6:56 PM65 °FPartly sunny.3 mph44%30.00 "Hg10 mi
5:56 PM67 °FPartly sunny.7 mph39%30.00 "Hg10 mi
4:56 PM70 °FBroken clouds.10 mph34%30.01 "Hg10 mi
3:56 PM70 °FScattered clouds.13 mph32%30.02 "Hg10 mi
2:56 PM70 °FPartly sunny.12 mph34%30.04 "Hg10 mi
1:56 PM68 °FPartly sunny.13 mph39%30.07 "Hg10 mi
12:56 PM68 °FPartly sunny.12 mph40%30.10 "Hg10 mi
11:56 AM64 °FPartly sunny.13 mph45%30.14 "Hg10 mi
10:56 AM62 °FPartly sunny.9 mph52%30.16 "Hg10 mi
9:56 AM59 °FPartly sunny.8 mph64%30.18 "Hg10 mi
8:56 AM50 °FPartly sunny.3 mph77%30.18 "Hg10 mi
Weather by CustomWeather, © 2014

See weather overviewHow to use our weather pages